Time,TemperatureF,DewpointF,PressureIn,WindDirection,WindDirectionDegrees,WindSpeedMPH,WindSpeedGustMPH,Humidity,HourlyPrecipIn,Conditions,Clouds,dailyrainin,SoftwareType,DateUTC
2013-04-11 00:00:00,40.1,39.4,29.94,ESE,123,0.0,3.0,97,0.00,,,0.56,meteohub,2013-04-11 04:00:00,
2013-04-11 00:02:00,40.1,39.4,29.94,ESE,123,0.0,2.0,97,0.00,,,0.56,meteohub,2013-04-11 04:02:00,
2013-04-11 00:04:00,40.1,39.4,29.94,ESE,123,0.0,2.0,97,0.00,,,0.56,meteohub,2013-04-11 04:04:00,
2013-04-11 00:09:00,40.3,39.6,29.93,ESE,121,1.0,2.0,97,0.00,,,0.00,meteohub,2013-04-11 04:09:00,
2013-04-11 00:14:00,40.3,39.6,29.93,ESE,121,1.0,2.0,97,0.00,,,0.00,meteohub,2013-04-11 04:14:00,
2013-04-11 00:19:00,40.3,39.6,29.94,NE,41,1.0,3.0,97,0.00,,,0.00,meteohub,2013-04-11 04:19:00,
2013-04-11 00:25:00,40.3,39.6,29.93,East,84,1.0,3.0,97,0.00,,,0.00,meteohub,2013-04-11 04:25:00,
2013-04-11 00:30:00,40.3,39.6,29.92,East,84,1.0,3.0,97,0.00,,,0.00,meteohub,2013-04-11 04:30:00,
2013-04-11 00:35:00,40.5,39.7,29.92,ENE,63,1.0,5.0,97,0.00,,,0.00,meteohub,2013-04-11 04:35:00,
2013-04-11 00:40:00,40.5,39.7,29.92,ENE,72,1.0,5.0,97,0.00,,,0.00,meteohub,2013-04-11 04:40:00,
2013-04-11 00:45:00,40.5,39.7,29.91,ENE,74,2.0,5.0,97,0.00,,,0.00,meteohub,2013-04-11 04:45:00,
2013-04-11 00:50:00,40.5,39.7,29.91,ENE,74,0.0,4.0,97,0.00,,,0.00,meteohub,2013-04-11 04:50:00,
2013-04-11 00:55:00,40.5,39.7,29.93,ENE,74,0.0,4.0,97,0.00,,,0.00,meteohub,2013-04-11 04:55:00,
2013-04-11 01:01:00,40.6,39.9,29.94,North,355,3.0,4.0,97,0.00,,,0.00,meteohub,2013-04-11 05:01:00,
2013-04-11 01:06:00,40.6,39.9,29.94,North,355,0.0,4.0,97,0.01,,,0.01,meteohub,2013-04-11 05:06:00,
2013-04-11 01:11:00,40.6,39.9,29.93,North,355,1.0,4.0,97,0.01,,,0.01,meteohub,2013-04-11 05:11:00,
2013-04-11 01:16:00,40.6,39.9,29.93,North,355,0.0,4.0,97,0.01,,,0.01,meteohub,2013-04-11 05:16:00,
2013-04-11 01:22:00,40.8,40.1,29.93,North,355,1.0,2.0,97,0.02,,,0.02,meteohub,2013-04-11 05:22:00,
2013-04-11 01:27:00,40.8,40.1,29.92,North,355,1.0,3.0,97,0.02,,,0.02,meteohub,2013-04-11 05:27:00,
2013-04-11 01:32:00,40.8,40.1,29.92,East,92,5.0,5.0,97,0.03,,,0.03,meteohub,2013-04-11 05:32:00,
2013-04-11 01:37:00,40.6,39.9,29.92,ESE,105,1.0,5.0,97,0.04,,,0.04,meteohub,2013-04-11 05:37:00,
2013-04-11 01:42:00,40.6,39.9,29.94,East,80,0.0,5.0,97,0.05,,,0.05,meteohub,2013-04-11 05:42:00,
2013-04-11 01:47:00,40.6,39.9,29.94,ENE,65,2.0,5.0,97,0.06,,,0.06,meteohub,2013-04-11 05:47:00,
2013-04-11 01:52:00,40.5,39.7,29.94,ENE,74,1.0,6.0,97,0.07,,,0.07,meteohub,2013-04-11 05:52:00,
2013-04-11 01:57:00,40.3,39.6,29.94,ENE,63,2.0,7.0,97,0.07,,,0.07,meteohub,2013-04-11 05:57:00,
2013-04-11 02:02:00,39.9,39.2,29.94,ESE,102,3.0,7.0,97,0.08,,,0.08,meteohub,2013-04-11 06:02:00,
2013-04-11 02:07:00,39.6,38.8,29.94,ESE,103,2.0,8.0,97,0.08,,,0.09,meteohub,2013-04-11 06:07:00,
2013-04-11 02:12:00,39.4,38.7,29.94,ENE,74,1.0,8.0,97,0.08,,,0.09,meteohub,2013-04-11 06:12:00,
2013-04-11 02:17:00,39.0,37.9,29.94,ENE,72,2.0,8.0,96,0.09,,,0.11,meteohub,2013-04-11 06:17:00,
2013-04-11 02:22:00,39.0,38.3,29.92,ENE,72,2.0,7.0,97,0.09,,,0.11,meteohub,2013-04-11 06:22:00,
2013-04-11 02:27:00,39.0,38.3,29.91,SE,146,4.0,7.0,97,0.09,,,0.11,meteohub,2013-04-11 06:27:00,
2013-04-11 02:32:00,38.8,38.1,29.91,ESE,103,2.0,9.0,97,0.09,,,0.12,meteohub,2013-04-11 06:32:00,
2013-04-11 02:38:00,38.8,38.1,29.91,ESE,123,4.0,9.0,97,0.08,,,0.12,meteohub,2013-04-11 06:38:00,
2013-04-11 02:43:00,38.7,37.9,29.91,SE,145,6.0,9.0,97,0.07,,,0.12,meteohub,2013-04-11 06:43:00,
2013-04-11 02:48:00,38.7,37.9,29.91,SE,126,1.0,8.0,97,0.06,,,0.12,meteohub,2013-04-11 06:48:00,
2013-04-11 02:53:00,38.7,37.9,29.91,SE,124,3.0,8.0,97,0.05,,,0.12,meteohub,2013-04-11 06:53:00,
2013-04-11 02:58:00,38.7,37.9,29.92,ESE,104,2.0,8.0,97,0.04,,,0.12,meteohub,2013-04-11 06:58:00,
2013-04-11 03:03:00,38.7,37.9,29.92,ESE,121,2.0,6.0,97,0.04,,,0.13,meteohub,2013-04-11 07:03:00,
2013-04-11 03:08:00,38.7,37.9,29.91,East,98,2.0,6.0,97,0.04,,,0.13,meteohub,2013-04-11 07:08:00,
2013-04-11 03:13:00,38.7,37.9,29.88,SE,137,6.0,6.0,97,0.04,,,0.13,meteohub,2013-04-11 07:13:00,
2013-04-11 03:19:00,38.7,37.9,29.88,SE,134,5.0,8.0,97,0.03,,,0.14,meteohub,2013-04-11 07:19:00,
2013-04-11 03:24:00,38.5,37.8,29.87,ESE,121,2.0,10.0,97,0.03,,,0.14,meteohub,2013-04-11 07:24:00,
2013-04-11 03:29:00,38.5,37.8,29.88,SE,143,2.0,13.0,97,0.02,,,0.14,meteohub,2013-04-11 07:29:00,
2013-04-11 03:34:00,38.3,37.6,29.89,South,174,4.0,13.0,97,0.02,,,0.14,meteohub,2013-04-11 07:34:00,
2013-04-11 03:39:00,38.3,37.6,29.88,SE,146,4.0,9.0,97,0.02,,,0.14,meteohub,2013-04-11 07:39:00,
2013-04-11 03:45:00,38.3,37.6,29.89,SE,144,2.0,9.0,97,0.03,,,0.15,meteohub,2013-04-11 07:45:00,
2013-04-11 03:50:00,38.5,37.8,29.90,ESE,115,4.0,10.0,97,0.03,,,0.15,meteohub,2013-04-11 07:50:00,
2013-04-11 03:56:00,38.5,37.8,29.87,SE,142,5.0,10.0,97,0.03,,,0.16,meteohub,2013-04-11 07:56:00,
2013-04-11 04:01:00,38.3,37.6,29.88,SSE,158,3.0,10.0,97,0.03,,,0.16,meteohub,2013-04-11 08:01:00,
2013-04-11 04:06:00,38.3,37.6,29.90,SE,131,3.0,10.0,97,0.04,,,0.17,meteohub,2013-04-11 08:06:00,
2013-04-11 04:11:00,38.3,37.6,29.89,SE,130,5.0,10.0,97,0.05,,,0.18,meteohub,2013-04-11 08:11:00,
2013-04-11 04:17:00,38.3,37.6,29.90,East,90,6.0,7.0,97,0.04,,,0.18,meteohub,2013-04-11 08:17:00,
2013-04-11 04:22:00,38.3,37.6,29.90,ESE,117,2.0,7.0,97,0.04,,,0.18,meteohub,2013-04-11 08:22:00,
2013-04-11 04:27:00,38.3,37.6,29.91,SSE,155,2.0,7.0,97,0.04,,,0.18,meteohub,2013-04-11 08:27:00,
2013-04-11 04:32:00,38.3,37.6,29.90,ESE,109,2.0,7.0,97,0.04,,,0.18,meteohub,2013-04-11 08:32:00,
2013-04-11 04:37:00,38.3,37.6,29.89,SE,138,4.0,6.0,97,0.04,,,0.18,meteohub,2013-04-11 08:37:00,
2013-04-11 04:42:00,38.3,37.6,29.89,ESE,123,2.0,8.0,97,0.03,,,0.18,meteohub,2013-04-11 08:42:00,
2013-04-11 04:48:00,38.1,37.4,29.89,ENE,70,7.0,8.0,97,0.03,,,0.18,meteohub,2013-04-11 08:48:00,
2013-04-11 04:53:00,38.1,37.4,29.89,SE,143,3.0,8.0,97,0.03,,,0.18,meteohub,2013-04-11 08:53:00,
2013-04-11 04:58:00,38.1,37.4,29.88,ESE,114,4.0,8.0,97,0.02,,,0.18,meteohub,2013-04-11 08:58:00,
2013-04-11 05:03:00,38.1,37.4,29.88,East,88,5.0,8.0,97,0.02,,,0.18,meteohub,2013-04-11 09:03:00,
2013-04-11 05:08:00,38.1,37.4,29.88,East,85,6.0,8.0,97,0.01,,,0.18,meteohub,2013-04-11 09:08:00,
2013-04-11 05:13:00,38.1,37.4,29.88,ESE,121,2.0,9.0,97,0.00,,,0.18,meteohub,2013-04-11 09:13:00,
2013-04-11 05:19:00,38.1,37.4,29.87,ESE,113,1.0,9.0,97,0.00,,,0.18,meteohub,2013-04-11 09:19:00,
2013-04-11 05:24:00,38.1,37.4,29.86,SE,134,5.0,10.0,97,0.00,,,0.18,meteohub,2013-04-11 09:24:00,
2013-04-11 05:29:00,38.1,37.4,29.86,SSE,156,5.0,10.0,97,0.00,,,0.18,meteohub,2013-04-11 09:29:00,
2013-04-11 05:34:00,38.1,37.4,29.86,ESE,102,4.0,10.0,97,0.00,,,0.18,meteohub,2013-04-11 09:34:00,
2013-04-11 05:40:00,38.3,37.6,29.86,SE,130,5.0,12.0,97,0.00,,,0.18,meteohub,2013-04-11 09:40:00,
2013-04-11 05:45:00,38.3,37.6,29.86,SE,126,3.0,9.0,97,0.00,,,0.18,meteohub,2013-04-11 09:45:00,
2013-04-11 05:51:00,38.5,37.8,29.86,SE,141,3.0,8.0,97,0.00,,,0.18,meteohub,2013-04-11 09:51:00,
2013-04-11 05:56:00,38.5,37.8,29.86,SE,127,6.0,7.0,97,0.00,,,0.18,meteohub,2013-04-11 09:56:00,
2013-04-11 06:01:00,38.5,37.8,29.86,East,99,3.0,7.0,97,0.00,,,0.18,meteohub,2013-04-11 10:01:00,
2013-04-11 06:06:00,38.5,37.8,29.86,SE,136,3.0,7.0,97,0.00,,,0.18,meteohub,2013-04-11 10:06:00,
2013-04-11 06:11:00,38.5,37.8,29.86,SE,126,1.0,7.0,97,0.00,,,0.18,meteohub,2013-04-11 10:11:00,
2013-04-11 06:17:00,38.7,37.9,29.87,SE,127,2.0,6.0,97,0.00,,,0.18,meteohub,2013-04-11 10:17:00,
2013-04-11 06:22:00,38.7,37.9,29.86,SE,137,5.0,6.0,97,0.00,,,0.18,meteohub,2013-04-11 10:22:00,
2013-04-11 06:27:00,38.7,37.9,29.86,SE,128,5.0,6.0,97,0.00,,,0.18,meteohub,2013-04-11 10:27:00,
2013-04-11 06:32:00,38.7,37.9,29.86,SSE,155,4.0,6.0,97,0.00,,,0.18,meteohub,2013-04-11 10:32:00,
2013-04-11 06:37:00,38.7,37.9,29.86,SE,136,2.0,7.0,97,0.00,,,0.18,meteohub,2013-04-11 10:37:00,
2013-04-11 06:42:00,38.7,37.9,29.86,SE,124,3.0,7.0,97,0.00,,,0.18,meteohub,2013-04-11 10:42:00,
2013-04-11 06:47:00,38.8,38.1,29.86,SSE,157,2.0,7.0,97,0.00,,,0.18,meteohub,2013-04-11 10:47:00,
2013-04-11 06:53:00,38.8,38.1,29.86,SE,138,3.0,7.0,97,0.00,,,0.18,meteohub,2013-04-11 10:53:00,
2013-04-11 06:58:00,38.8,38.1,29.87,SSE,152,3.0,5.0,97,0.00,,,0.18,meteohub,2013-04-11 10:58:00,
2013-04-11 07:03:00,39.0,38.3,29.87,SE,126,0.0,5.0,97,0.00,,,0.18,meteohub,2013-04-11 11:03:00,
2013-04-11 07:08:00,39.0,38.3,29.87,SE,124,1.0,4.0,97,0.00,,,0.18,meteohub,2013-04-11 11:08:00,
2013-04-11 07:13:00,39.0,38.3,29.87,ESE,114,2.0,4.0,97,0.00,,,0.18,meteohub,2013-04-11 11:13:00,
2013-04-11 07:18:00,39.2,38.5,29.87,SE,137,2.0,4.0,97,0.00,,,0.18,meteohub,2013-04-11 11:18:00,
2013-04-11 07:24:00,39.4,38.7,29.87,ESE,113,2.0,4.0,97,0.00,,,0.18,meteohub,2013-04-11 11:24:00,
2013-04-11 07:29:00,39.4,38.7,29.88,NE,55,0.0,5.0,97,0.00,,,0.18,meteohub,2013-04-11 11:29:00,
2013-04-11 07:34:00,39.4,38.7,29.88,ESE,115,5.0,5.0,97,0.00,,,0.18,meteohub,2013-04-11 11:34:00,
2013-04-11 07:39:00,39.4,38.7,29.88,SE,126,1.0,5.0,97,0.00,,,0.18,meteohub,2013-04-11 11:39:00,
2013-04-11 07:44:00,39.4,38.7,29.88,East,93,5.0,7.0,97,0.00,,,0.18,meteohub,2013-04-11 11:44:00,
2013-04-11 07:50:00,39.6,38.8,29.88,ESE,122,4.0,7.0,97,0.00,,,0.18,meteohub,2013-04-11 11:50:00,
2013-04-11 07:55:00,39.6,38.8,29.89,ENE,74,2.0,6.0,97,0.00,,,0.18,meteohub,2013-04-11 11:55:00,
2013-04-11 08:00:00,39.6,38.8,29.90,SE,134,3.0,7.0,97,0.00,,,0.18,meteohub,2013-04-11 12:00:00,
2013-04-11 08:05:00,39.6,38.8,29.90,East,94,2.0,5.0,97,0.00,,,0.18,meteohub,2013-04-11 12:05:00,
2013-04-11 08:10:00,39.6,38.8,29.91,ENE,61,2.0,5.0,97,0.00,,,0.18,meteohub,2013-04-11 12:10:00,
2013-04-11 08:16:00,39.9,39.2,29.96,East,93,7.0,14.0,97,0.01,,,0.19,meteohub,2013-04-11 12:16:00,
2013-04-11 08:22:00,39.9,39.2,29.95,North,11,2.0,14.0,97,0.01,,,0.19,meteohub,2013-04-11 12:22:00,
2013-04-11 08:27:00,39.7,39.0,29.95,ENE,66,3.0,14.0,97,0.01,,,0.19,meteohub,2013-04-11 12:27:00,
2013-04-11 08:32:00,39.6,38.8,29.96,NNW,348,3.0,13.0,97,0.01,,,0.19,meteohub,2013-04-11 12:32:00,
2013-04-11 08:37:00,38.8,38.1,29.96,NE,48,1.0,13.0,97,0.01,,,0.19,meteohub,2013-04-11 12:37:00,
2013-04-11 08:42:00,38.5,37.8,29.94,NE,49,4.0,12.0,97,0.01,,,0.19,meteohub,2013-04-11 12:42:00,
2013-04-11 08:47:00,38.1,37.4,29.93,ESE,115,1.0,12.0,97,0.01,,,0.19,meteohub,2013-04-11 12:47:00,
2013-04-11 08:52:00,37.8,37.0,29.93,ESE,113,5.0,9.0,97,0.01,,,0.19,meteohub,2013-04-11 12:52:00,
2013-04-11 08:58:00,37.8,37.0,29.93,ESE,121,3.0,9.0,97,0.01,,,0.19,meteohub,2013-04-11 12:58:00,
2013-04-11 09:03:00,37.6,36.9,29.93,East,82,9.0,9.0,97,0.01,,,0.19,meteohub,2013-04-11 13:03:00,
2013-04-11 09:08:00,37.2,36.5,29.92,ESE,119,7.0,9.0,97,0.01,,,0.19,meteohub,2013-04-11 13:08:00,
2013-04-11 09:14:00,37.2,36.5,29.92,ESE,122,7.0,10.0,97,0.01,,,0.19,meteohub,2013-04-11 13:14:00,
2013-04-11 09:19:00,37.2,36.5,29.91,SE,134,5.0,11.0,97,0.00,,,0.19,meteohub,2013-04-11 13:19:00,
2013-04-11 09:24:00,37.2,36.5,29.91,SE,144,5.0,11.0,97,0.00,,,0.19,meteohub,2013-04-11 13:24:00,
2013-04-11 09:29:00,37.2,36.5,29.89,SSE,150,8.0,13.0,97,0.00,,,0.19,meteohub,2013-04-11 13:29:00,
2013-04-11 09:34:00,37.2,36.5,29.91,ESE,103,4.0,13.0,97,0.00,,,0.19,meteohub,2013-04-11 13:34:00,
2013-04-11 09:40:00,37.2,36.5,29.91,SSE,149,6.0,13.0,97,0.00,,,0.19,meteohub,2013-04-11 13:40:00,
2013-04-11 09:45:00,37.4,36.7,29.91,SE,129,4.0,13.0,97,0.00,,,0.19,meteohub,2013-04-11 13:45:00,
2013-04-11 09:50:00,37.4,36.7,29.91,SSE,148,5.0,12.0,97,0.00,,,0.19,meteohub,2013-04-11 13:50:00,
2013-04-11 09:55:00,37.6,36.9,29.91,East,90,6.0,9.0,97,0.00,,,0.19,meteohub,2013-04-11 13:55:00,
2013-04-11 10:00:00,37.6,36.9,29.92,ESE,107,1.0,9.0,97,0.00,,,0.19,meteohub,2013-04-11 14:00:00,
2013-04-11 10:06:00,37.6,36.9,29.92,SE,142,3.0,9.0,97,0.00,,,0.19,meteohub,2013-04-11 14:06:00,
2013-04-11 10:11:00,37.8,37.0,29.92,ESE,109,5.0,9.0,97,0.00,,,0.19,meteohub,2013-04-11 14:11:00,
2013-04-11 10:16:00,37.8,37.0,29.92,East,94,1.0,9.0,97,0.00,,,0.19,meteohub,2013-04-11 14:16:00,
2013-04-11 10:21:00,37.6,36.9,29.92,SE,129,4.0,8.0,97,0.00,,,0.19,meteohub,2013-04-11 14:21:00,
2013-04-11 10:27:00,37.6,36.9,29.91,ESE,111,4.0,10.0,97,0.00,,,0.19,meteohub,2013-04-11 14:27:00,
2013-04-11 10:32:00,37.8,37.0,29.91,SSE,148,6.0,10.0,97,0.00,,,0.19,meteohub,2013-04-11 14:32:00,
2013-04-11 10:37:00,37.9,37.2,29.91,SE,143,4.0,10.0,97,0.00,,,0.19,meteohub,2013-04-11 14:37:00,
2013-04-11 10:42:00,38.1,37.4,29.90,SE,138,7.0,8.0,97,0.00,,,0.19,meteohub,2013-04-11 14:42:00,
2013-04-11 10:47:00,38.1,37.4,29.90,SE,136,1.0,10.0,97,0.00,,,0.19,meteohub,2013-04-11 14:47:00,
2013-04-11 10:52:00,38.1,37.4,29.91,SE,131,4.0,10.0,97,0.00,,,0.19,meteohub,2013-04-11 14:52:00,
2013-04-11 10:58:00,38.5,37.8,29.91,SSE,150,4.0,10.0,97,0.00,,,0.19,meteohub,2013-04-11 14:58:00,
2013-04-11 11:03:00,38.8,38.1,29.90,SE,145,2.0,10.0,97,0.00,,,0.19,meteohub,2013-04-11 15:03:00,
2013-04-11 11:08:00,38.8,38.1,29.90,SSE,158,3.0,9.0,97,0.00,,,0.19,meteohub,2013-04-11 15:08:00,
2013-04-11 11:13:00,38.8,38.1,29.89,South,175,5.0,9.0,97,0.00,,,0.19,meteohub,2013-04-11 15:13:00,
2013-04-11 11:19:00,38.8,38.1,29.90,ESE,123,2.0,9.0,97,0.00,,,0.19,meteohub,2013-04-11 15:19:00,
2013-04-11 11:24:00,39.2,38.5,29.90,SE,135,5.0,9.0,97,0.00,,,0.19,meteohub,2013-04-11 15:24:00,
2013-04-11 11:29:00,39.4,38.7,29.90,ESE,123,3.0,9.0,97,0.00,,,0.19,meteohub,2013-04-11 15:29:00,
2013-04-11 11:34:00,39.6,38.8,29.90,SE,124,3.0,9.0,97,0.00,,,0.19,meteohub,2013-04-11 15:34:00,
2013-04-11 11:40:00,39.6,38.8,29.89,SSE,158,3.0,9.0,97,0.01,,,0.20,meteohub,2013-04-11 15:40:00,
2013-04-11 11:45:00,39.7,39.0,29.88,South,185,5.0,11.0,97,0.01,,,0.20,meteohub,2013-04-11 15:45:00,
2013-04-11 11:50:00,39.7,39.0,29.88,East,88,3.0,12.0,97,0.01,,,0.20,meteohub,2013-04-11 15:50:00,
2013-04-11 11:55:00,39.9,39.4,29.92,ENE,63,3.0,12.0,98,0.01,,,0.20,meteohub,2013-04-11 15:55:00,
2013-04-11 12:01:00,39.9,39.4,29.91,East,88,3.0,12.0,98,0.01,,,0.20,meteohub,2013-04-11 16:01:00,
2013-04-11 12:06:00,39.9,39.4,29.91,ENE,71,5.0,11.0,98,0.01,,,0.20,meteohub,2013-04-11 16:06:00,
2013-04-11 12:12:00,39.7,39.2,29.90,SSE,147,5.0,8.0,98,0.02,,,0.21,meteohub,2013-04-11 16:12:00,
2013-04-11 12:17:00,39.9,39.4,29.88,South,180,5.0,8.0,98,0.02,,,0.21,meteohub,2013-04-11 16:17:00,
2013-04-11 12:22:00,39.9,39.4,29.88,SSE,149,5.0,10.0,98,0.02,,,0.21,meteohub,2013-04-11 16:22:00,
2013-04-11 12:27:00,40.1,39.4,29.87,SSE,148,10.0,10.0,97,0.02,,,0.21,meteohub,2013-04-11 16:27:00,
2013-04-11 12:32:00,40.3,39.6,29.86,SSE,161,7.0,11.0,97,0.01,,,0.21,meteohub,2013-04-11 16:32:00,
2013-04-11 12:37:00,40.5,39.7,29.83,SE,133,14.0,14.0,97,0.01,,,0.21,meteohub,2013-04-11 16:37:00,
2013-04-11 12:43:00,40.5,39.9,29.91,North,5,10.0,15.0,98,0.01,,,0.21,meteohub,2013-04-11 16:43:00,
2013-04-11 12:48:00,40.5,39.9,29.91,NNW,342,8.0,15.0,98,0.01,,,0.21,meteohub,2013-04-11 16:48:00,
2013-04-11 12:54:00,40.5,39.9,29.89,NNE,16,4.0,15.0,98,0.01,,,0.21,meteohub,2013-04-11 16:54:00,
2013-04-11 12:59:00,40.3,39.6,29.88,NE,48,4.0,13.0,97,0.01,,,0.21,meteohub,2013-04-11 16:59:00,
2013-04-11 13:04:00,39.7,39.0,29.88,East,82,2.0,12.0,97,0.01,,,0.21,meteohub,2013-04-11 17:04:00,
2013-04-11 13:09:00,39.0,38.3,29.88,ENE,69,5.0,10.0,97,0.01,,,0.21,meteohub,2013-04-11 17:09:00,
2013-04-11 13:14:00,38.5,37.8,29.89,East,96,5.0,11.0,97,0.00,,,0.21,meteohub,2013-04-11 17:14:00,
2013-04-11 13:19:00,38.3,37.6,29.87,SE,138,6.0,11.0,97,0.00,,,0.21,meteohub,2013-04-11 17:19:00,
2013-04-11 13:25:00,38.7,37.9,29.87,SE,132,5.0,11.0,97,0.00,,,0.21,meteohub,2013-04-11 17:25:00,
2013-04-11 13:30:00,38.8,38.1,29.88,East,94,5.0,11.0,97,0.00,,,0.21,meteohub,2013-04-11 17:30:00,
2013-04-11 13:35:00,39.0,38.3,29.88,SE,144,7.0,11.0,97,0.00,,,0.21,meteohub,2013-04-11 17:35:00,
2013-04-11 13:40:00,39.4,38.7,29.88,ESE,112,3.0,10.0,97,0.00,,,0.21,meteohub,2013-04-11 17:40:00,
2013-04-11 13:45:00,39.7,39.0,29.88,SE,132,2.0,8.0,97,0.00,,,0.21,meteohub,2013-04-11 17:45:00,
2013-04-11 13:50:00,40.5,39.7,29.88,South,172,4.0,8.0,97,0.00,,,0.21,meteohub,2013-04-11 17:50:00,
2013-04-11 13:56:00,41.0,40.5,29.88,SSE,148,6.0,9.0,98,0.00,,,0.21,meteohub,2013-04-11 17:56:00,
2013-04-11 14:01:00,40.8,40.3,29.90,East,96,2.0,9.0,98,0.00,,,0.21,meteohub,2013-04-11 18:01:00,
2013-04-11 14:06:00,40.8,40.3,29.90,East,87,7.0,8.0,98,0.00,,,0.21,meteohub,2013-04-11 18:06:00,
2013-04-11 14:11:00,40.6,40.1,29.89,SE,124,3.0,8.0,98,0.00,,,0.21,meteohub,2013-04-11 18:11:00,
2013-04-11 14:17:00,40.1,39.4,29.90,East,84,2.0,10.0,97,0.00,,,0.21,meteohub,2013-04-11 18:17:00,
2013-04-11 14:22:00,39.7,39.0,29.88,SE,128,6.0,10.0,97,0.00,,,0.21,meteohub,2013-04-11 18:22:00,
2013-04-11 14:27:00,39.6,38.8,29.88,ESE,122,1.0,13.0,97,0.00,,,0.21,meteohub,2013-04-11 18:27:00,
2013-04-11 14:32:00,39.6,38.8,29.88,SE,131,6.0,13.0,97,0.00,,,0.21,meteohub,2013-04-11 18:32:00,
2013-04-11 14:37:00,39.2,38.5,29.87,ESE,119,3.0,13.0,97,0.00,,,0.21,meteohub,2013-04-11 18:37:00,
2013-04-11 14:43:00,39.4,38.7,29.88,SE,141,3.0,13.0,97,0.00,,,0.21,meteohub,2013-04-11 18:43:00,
2013-04-11 14:48:00,39.6,38.8,29.89,SE,134,2.0,13.0,97,0.00,,,0.21,meteohub,2013-04-11 18:48:00,
2013-04-11 14:53:00,39.6,38.8,29.88,South,181,3.0,13.0,97,0.00,,,0.21,meteohub,2013-04-11 18:53:00,
2013-04-11 14:58:00,39.6,38.8,29.88,SE,146,5.0,7.0,97,0.00,,,0.21,meteohub,2013-04-11 18:58:00,
2013-04-11 15:03:00,39.6,38.8,29.88,SE,136,5.0,10.0,97,0.00,,,0.21,meteohub,2013-04-11 19:03:00,
2013-04-11 15:09:00,39.7,39.0,29.87,SE,134,4.0,10.0,97,0.00,,,0.21,meteohub,2013-04-11 19:09:00,
2013-04-11 15:14:00,39.7,39.0,29.87,SSE,163,4.0,10.0,97,0.00,,,0.21,meteohub,2013-04-11 19:14:00,
2013-04-11 15:19:00,39.7,39.0,29.88,SE,137,4.0,8.0,97,0.00,,,0.21,meteohub,2013-04-11 19:19:00,
2013-04-11 15:24:00,40.1,39.6,29.87,East,90,3.0,8.0,98,0.00,,,0.21,meteohub,2013-04-11 19:24:00,
2013-04-11 15:30:00,40.3,39.6,29.88,East,84,5.0,8.0,97,0.00,,,0.21,meteohub,2013-04-11 19:30:00,
2013-04-11 15:35:00,40.1,39.4,29.88,NE,55,1.0,7.0,97,0.00,,,0.21,meteohub,2013-04-11 19:35:00,
2013-04-11 15:40:00,40.3,39.6,29.87,East,82,2.0,7.0,97,0.00,,,0.21,meteohub,2013-04-11 19:40:00,
2013-04-11 15:45:00,40.3,39.6,29.86,East,83,3.0,5.0,97,0.00,,,0.21,meteohub,2013-04-11 19:45:00,
2013-04-11 15:50:00,40.5,39.9,29.86,SE,127,0.0,6.0,98,0.00,,,0.21,meteohub,2013-04-11 19:50:00,
2013-04-11 15:56:00,40.6,40.1,29.85,SSE,158,5.0,7.0,98,0.00,,,0.21,meteohub,2013-04-11 19:56:00,
2013-04-11 16:01:00,40.8,40.1,29.85,SSE,151,7.0,8.0,97,0.00,,,0.21,meteohub,2013-04-11 20:01:00,
2013-04-11 16:06:00,40.6,40.1,29.85,SE,126,3.0,8.0,98,0.00,,,0.21,meteohub,2013-04-11 20:06:00,
2013-04-11 16:11:00,40.6,40.1,29.85,East,82,3.0,8.0,98,0.00,,,0.21,meteohub,2013-04-11 20:11:00,
2013-04-11 16:17:00,40.6,40.1,29.86,ENE,70,2.0,8.0,98,0.00,,,0.21,meteohub,2013-04-11 20:17:00,
2013-04-11 16:22:00,40.6,39.9,29.86,ENE,71,2.0,7.0,97,0.00,,,0.21,meteohub,2013-04-11 20:22:00,
2013-04-11 16:27:00,40.8,40.1,29.85,SE,128,3.0,6.0,97,0.00,,,0.21,meteohub,2013-04-11 20:27:00,
2013-04-11 16:32:00,40.6,39.9,29.85,SE,133,4.0,7.0,97,0.00,,,0.21,meteohub,2013-04-11 20:32:00,
2013-04-11 16:38:00,40.6,39.9,29.85,ESE,122,3.0,7.0,97,0.00,,,0.21,meteohub,2013-04-11 20:38:00,
2013-04-11 16:43:00,40.8,40.3,29.85,ENE,77,2.0,7.0,98,0.00,,,0.21,meteohub,2013-04-11 20:43:00,
2013-04-11 16:48:00,40.8,40.1,29.84,SE,137,4.0,7.0,97,0.00,,,0.21,meteohub,2013-04-11 20:48:00,
2013-04-11 16:53:00,40.6,39.9,29.85,SE,131,3.0,7.0,97,0.00,,,0.21,meteohub,2013-04-11 20:53:00,
2013-04-11 16:58:00,40.3,39.6,29.84,East,101,3.0,7.0,97,0.00,,,0.21,meteohub,2013-04-11 20:58:00,
2013-04-11 17:04:00,40.1,39.4,29.84,East,93,3.0,9.0,97,0.00,,,0.21,meteohub,2013-04-11 21:04:00,
2013-04-11 17:09:00,39.9,39.2,29.84,East,89,3.0,9.0,97,0.00,,,0.21,meteohub,2013-04-11 21:09:00,
2013-04-11 17:14:00,39.7,39.0,29.84,SSE,155,4.0,9.0,97,0.00,,,0.21,meteohub,2013-04-11 21:14:00,
2013-04-11 17:20:00,39.7,39.0,29.84,SE,126,5.0,8.0,97,0.00,,,0.21,meteohub,2013-04-11 21:20:00,
2013-04-11 17:25:00,39.7,39.0,29.84,ESE,119,4.0,10.0,97,0.00,,,0.21,meteohub,2013-04-11 21:25:00,
2013-04-11 17:30:00,39.7,39.0,29.85,ESE,117,1.0,8.0,97,0.00,,,0.21,meteohub,2013-04-11 21:30:00,
2013-04-11 17:35:00,39.9,39.2,29.85,SSE,155,7.0,8.0,97,0.00,,,0.21,meteohub,2013-04-11 21:35:00,
2013-04-11 17:40:00,39.7,39.0,29.85,SE,146,2.0,10.0,97,0.00,,,0.21,meteohub,2013-04-11 21:40:00,
2013-04-11 17:45:00,39.9,39.2,29.84,SE,133,3.0,10.0,97,0.00,,,0.21,meteohub,2013-04-11 21:45:00,
2013-04-11 17:50:00,39.9,39.2,29.84,SE,132,4.0,10.0,97,0.00,,,0.21,meteohub,2013-04-11 21:50:00,
2013-04-11 17:56:00,39.9,39.2,29.83,SE,133,2.0,9.0,97,0.00,,,0.21,meteohub,2013-04-11 21:56:00,
2013-04-11 18:01:00,39.9,39.2,29.84,SE,127,1.0,7.0,97,0.00,,,0.21,meteohub,2013-04-11 22:01:00,
2013-04-11 18:06:00,39.9,39.2,29.83,SE,136,6.0,7.0,97,0.00,,,0.21,meteohub,2013-04-11 22:06:00,
2013-04-11 18:11:00,39.7,39.0,29.83,SE,135,2.0,7.0,97,0.00,,,0.21,meteohub,2013-04-11 22:11:00,
2013-04-11 18:17:00,39.7,39.0,29.83,SE,138,6.0,7.0,97,0.00,,,0.21,meteohub,2013-04-11 22:17:00,
2013-04-11 18:22:00,39.7,39.0,29.83,SE,130,3.0,9.0,97,0.00,,,0.21,meteohub,2013-04-11 22:22:00,
2013-04-11 18:27:00,39.7,39.0,29.83,SE,125,2.0,9.0,97,0.00,,,0.21,meteohub,2013-04-11 22:27:00,
2013-04-11 18:32:00,39.9,39.2,29.84,SE,144,4.0,9.0,97,0.00,,,0.21,meteohub,2013-04-11 22:32:00,
2013-04-11 18:37:00,39.9,39.2,29.83,SE,132,4.0,7.0,97,0.00,,,0.21,meteohub,2013-04-11 22:37:00,
2013-04-11 18:42:00,39.9,39.2,29.83,SE,142,5.0,7.0,97,0.00,,,0.21,meteohub,2013-04-11 22:42:00,
2013-04-11 18:47:00,39.9,39.2,29.83,SE,144,5.0,7.0,97,0.00,,,0.21,meteohub,2013-04-11 22:47:00,
2013-04-11 18:53:00,39.9,39.2,29.83,SE,132,4.0,6.0,97,0.00,,,0.21,meteohub,2013-04-11 22:53:00,
2013-04-11 18:58:00,39.9,39.2,29.82,SSE,150,5.0,8.0,97,0.00,,,0.21,meteohub,2013-04-11 22:58:00,
2013-04-11 19:03:00,39.9,39.2,29.82,ESE,116,2.0,8.0,97,0.00,,,0.21,meteohub,2013-04-11 23:03:00,
2013-04-11 19:08:00,39.7,39.0,29.82,SE,142,2.0,7.0,97,0.00,,,0.21,meteohub,2013-04-11 23:08:00,
2013-04-11 19:13:00,39.7,39.0,29.82,SE,142,2.0,7.0,97,0.00,,,0.21,meteohub,2013-04-11 23:13:00,
2013-04-11 19:18:00,39.9,39.2,29.81,SE,130,3.0,7.0,97,0.00,,,0.21,meteohub,2013-04-11 23:18:00,
2013-04-11 19:23:00,39.9,39.2,29.81,SE,126,5.0,7.0,97,0.00,,,0.21,meteohub,2013-04-11 23:23:00,
2013-04-11 19:28:00,39.7,39.0,29.81,SE,138,5.0,7.0,97,0.00,,,0.21,meteohub,2013-04-11 23:28:00,
2013-04-11 19:33:00,39.7,39.0,29.80,SE,126,2.0,9.0,97,0.00,,,0.21,meteohub,2013-04-11 23:33:00,
2013-04-11 19:38:00,39.7,39.0,29.80,East,98,3.0,9.0,97,0.00,,,0.21,meteohub,2013-04-11 23:38:00,
2013-04-11 19:44:00,39.7,39.0,29.79,SE,131,3.0,9.0,97,0.00,,,0.21,meteohub,2013-04-11 23:44:00,
2013-04-11 19:49:00,39.7,39.0,29.79,SE,134,1.0,8.0,97,0.00,,,0.21,meteohub,2013-04-11 23:49:00,
2013-04-11 19:54:00,39.7,39.0,29.79,SE,138,3.0,7.0,97,0.00,,,0.21,meteohub,2013-04-11 23:54:00,
2013-04-11 19:59:00,39.9,39.2,29.79,SE,140,2.0,7.0,97,0.00,,,0.21,meteohub,2013-04-11 23:59:00,
2013-04-11 20:04:00,39.9,39.2,29.78,SE,130,5.0,7.0,97,0.00,,,0.21,meteohub,2013-04-12 00:04:00,
2013-04-11 20:10:00,39.9,39.2,29.78,ESE,121,3.0,7.0,97,0.00,,,0.21,meteohub,2013-04-12 00:10:00,
2013-04-11 20:15:00,39.9,39.2,29.78,SE,134,1.0,8.0,97,0.00,,,0.21,meteohub,2013-04-12 00:15:00,
2013-04-11 20:21:00,39.9,39.2,29.78,SE,127,3.0,8.0,97,0.00,,,0.21,meteohub,2013-04-12 00:21:00,
2013-04-11 20:26:00,39.9,39.2,29.78,ESE,116,1.0,7.0,97,0.00,,,0.21,meteohub,2013-04-12 00:26:00,
2013-04-11 20:31:00,39.9,39.2,29.78,SE,136,4.0,8.0,97,0.00,,,0.21,meteohub,2013-04-12 00:31:00,
2013-04-11 20:36:00,39.7,39.0,29.78,ESE,104,1.0,8.0,97,0.00,,,0.21,meteohub,2013-04-12 00:36:00,
2013-04-11 20:41:00,39.9,39.2,29.78,SE,130,2.0,8.0,97,0.00,,,0.21,meteohub,2013-04-12 00:41:00,
2013-04-11 20:47:00,39.9,39.2,29.78,SE,137,5.0,7.0,97,0.00,,,0.21,meteohub,2013-04-12 00:47:00,
2013-04-11 20:52:00,40.3,39.6,29.77,SE,128,3.0,7.0,97,0.00,,,0.21,meteohub,2013-04-12 00:52:00,
2013-04-11 20:58:00,40.3,39.6,29.77,East,101,5.0,9.0,97,0.00,,,0.21,meteohub,2013-04-12 00:58:00,
2013-04-11 21:03:00,40.1,39.4,29.77,SE,132,3.0,9.0,97,0.00,,,0.21,meteohub,2013-04-12 01:03:00,
2013-04-11 21:08:00,40.1,39.4,29.76,SE,133,4.0,9.0,97,0.00,,,0.21,meteohub,2013-04-12 01:08:00,
2013-04-11 21:13:00,39.9,39.2,29.75,SE,134,6.0,7.0,97,0.00,,,0.21,meteohub,2013-04-12 01:13:00,
2013-04-11 21:18:00,39.9,39.2,29.75,SE,136,5.0,7.0,97,0.00,,,0.21,meteohub,2013-04-12 01:18:00,
2013-04-11 21:23:00,39.7,39.0,29.75,SE,136,6.0,8.0,97,0.00,,,0.21,meteohub,2013-04-12 01:23:00,
2013-04-11 21:28:00,39.7,39.0,29.75,ESE,120,3.0,8.0,97,0.00,,,0.21,meteohub,2013-04-12 01:28:00,
2013-04-11 21:34:00,39.7,39.0,29.75,SE,130,4.0,10.0,97,0.00,,,0.21,meteohub,2013-04-12 01:34:00,
2013-04-11 21:39:00,39.7,39.0,29.75,SE,143,3.0,10.0,97,0.00,,,0.21,meteohub,2013-04-12 01:39:00,
2013-04-11 21:44:00,39.7,39.0,29.75,ESE,121,4.0,10.0,97,0.00,,,0.21,meteohub,2013-04-12 01:44:00,
2013-04-11 21:49:00,39.7,39.0,29.74,SE,138,1.0,11.0,97,0.00,,,0.21,meteohub,2013-04-12 01:49:00,
2013-04-11 21:54:00,39.9,39.2,29.73,SE,131,5.0,11.0,97,0.00,,,0.21,meteohub,2013-04-12 01:54:00,
2013-04-11 22:00:00,39.7,39.0,29.73,SSE,158,6.0,11.0,97,0.00,,,0.21,meteohub,2013-04-12 02:00:00,
2013-04-11 22:05:00,39.7,39.0,29.73,SSE,159,3.0,8.0,97,0.00,,,0.21,meteohub,2013-04-12 02:05:00,
2013-04-11 22:10:00,39.7,39.0,29.73,SE,138,3.0,8.0,97,0.00,,,0.21,meteohub,2013-04-12 02:10:00,
2013-04-11 22:15:00,39.9,39.2,29.73,ESE,115,5.0,7.0,97,0.00,,,0.21,meteohub,2013-04-12 02:15:00,
2013-04-11 22:20:00,39.9,39.2,29.72,SSE,152,5.0,7.0,97,0.00,,,0.21,meteohub,2013-04-12 02:20:00,
2013-04-11 22:25:00,40.1,39.4,29.72,ESE,119,2.0,8.0,97,0.00,,,0.21,meteohub,2013-04-12 02:25:00,
2013-04-11 22:31:00,40.3,39.6,29.70,SE,146,1.0,8.0,97,0.00,,,0.21,meteohub,2013-04-12 02:31:00,
2013-04-11 22:36:00,40.3,39.6,29.70,SE,144,3.0,8.0,97,0.00,,,0.21,meteohub,2013-04-12 02:36:00,
2013-04-11 22:41:00,40.5,39.7,29.69,SE,128,2.0,7.0,97,0.00,,,0.21,meteohub,2013-04-12 02:41:00,
2013-04-11 22:46:00,40.6,39.9,29.69,SE,141,3.0,7.0,97,0.00,,,0.21,meteohub,2013-04-12 02:46:00,
2013-04-11 22:52:00,40.8,40.1,29.68,SE,126,4.0,8.0,97,0.00,,,0.21,meteohub,2013-04-12 02:52:00,
2013-04-11 22:57:00,41.2,40.5,29.68,SE,138,6.0,9.0,97,0.00,,,0.21,meteohub,2013-04-12 02:57:00,
2013-04-11 23:02:00,41.2,40.5,29.68,SE,132,4.0,9.0,97,0.00,,,0.21,meteohub,2013-04-12 03:02:00,
2013-04-11 23:07:00,41.4,40.6,29.68,South,170,3.0,9.0,97,0.00,,,0.21,meteohub,2013-04-12 03:07:00,
2013-04-11 23:12:00,41.5,40.8,29.68,SE,134,5.0,7.0,97,0.00,,,0.21,meteohub,2013-04-12 03:12:00,
2013-04-11 23:18:00,41.5,40.8,29.68,SE,128,3.0,7.0,97,0.00,,,0.21,meteohub,2013-04-12 03:18:00,
2013-04-11 23:23:00,41.5,40.8,29.68,SE,144,3.0,6.0,97,0.00,,,0.21,meteohub,2013-04-12 03:23:00,
2013-04-11 23:28:00,41.7,41.0,29.67,SSE,148,4.0,7.0,97,0.00,,,0.21,meteohub,2013-04-12 03:28:00,
2013-04-11 23:34:00,41.7,41.0,29.67,SE,128,6.0,7.0,97,0.00,,,0.21,meteohub,2013-04-12 03:34:00,
2013-04-11 23:39:00,41.9,41.2,29.66,SE,136,3.0,7.0,97,0.00,,,0.21,meteohub,2013-04-12 03:39:00,
2013-04-11 23:44:00,42.1,41.4,29.66,SE,136,4.0,7.0,97,0.00,,,0.21,meteohub,2013-04-12 03:44:00,
2013-04-11 23:49:00,42.1,41.4,29.65,SE,138,5.0,7.0,97,0.00,,,0.21,meteohub,2013-04-12 03:49:00,
2013-04-11 23:54:00,42.1,41.4,29.65,SE,131,4.0,8.0,97,0.00,,,0.21,meteohub,2013-04-12 03:54:00,